{"data":{"norad_id":82965,"intl_designator":"","name":"UNKNOWN","alt_names":[],"object_type":"UNKNOWN","status":"UNKNOWN","operator":null,"country":null,"launch_date":null,"launch_site_code":null,"launch_vehicle":null,"mission":null,"orbit_class":"UNKNOWN","rcs_meters":null,"size_class":null,"mass_kg":null,"dimensions":null,"purposes":[],"wikipedia_slug":null,"has_3d_model":false,"image_url":null,"decayed_at":null,"tle_current":{"epoch":"2026-09-18T11:17:24.276768Z","epoch_age_seconds":193673,"freshness":"STALE","line1":"1 82965U          26261.47041987  .00000643  00000+0  91768-3 0  9993","line2":"2 82965 100.1081 355.0446 0003221 144.8200 215.3152 13.60525805562486","mean_motion":13.60525805,"eccentricity":0.0003221,"inclination_deg":100.1081,"raan_deg":355.0446,"arg_perigee_deg":144.82,"mean_anomaly_deg":215.3152,"bstar":0.00091768,"rev_number":56248,"period_min":105.8414323865,"perigee_km":1031.394413049,"apogee_km":1036.1691711349,"semimajor_km":7411.918792092,"source":"CELESTRAK","updated_at":"2026-09-20T09:00:32.441416Z"}}}